Weather in Konets

Russia / Saint-Petersburg and Leningrad Oblast     60°54′36″N   34°58′05″E
temp.,
°C
wind,
m/s
gust,
m/s
humid.,
%
clouds,
%
prec.,
mm/h
press.,
hPa
HPBL,
m
2 august, mon
mon200:00+13ssw299746 0.0 1003173
03:00+13sw3109865 0.0 1004410
06:00+15sw3891100 0.0 1005594
09:00+18sw367273 0.0 1005715
12:00+22sw3650100 0.0 10051520
15:00+23ssw2453100 0.0 10041440
18:00+17s1187100 0.4 100323
21:00+16ne31196100 1.1 998341
3 august, tue
tue300:00+15e51495100 2.1 994646
03:00+17se31197100 2.3 990740
06:00+17s61297100 0.7 988975
09:00+14sw8179199 1.0 9931332
12:00+18sw7157486 0.3 9971380
15:00+19sw613764 1.5 10001342
18:00+18sw511723 0.7 10011307
21:00+15sw511855 1.1 1002827
4 august, wed
wed400:00+12wsw4119447 0.0 1004660
03:00+12wsw410835 0.0 1007686
06:00+11sw411855 0.0 1009582
09:00+16wsw59540 0.0 10101363
12:00+20w57345 0.0 10112471
15:00+20w57328 0.0 10132623
18:00+19w36365 0.0 10142331
21:00+13sw22645 0.0 101512
5 august, thu
thu500:00+10sw23767 0.0 101756
03:00+9ssw247923 0.0 101865
06:00+12ssw2467100 0.0 1018112
09:00+16wsw235475 0.0 1019315
12:00+22wsw123351 0.0 10182588
15:00+20se1242100 0.0 10181029
18:00+19ne1153100 0.0 101816
21:00+15ese22665 0.0 101851
6 august, fri
fri600:00+11ese11715 0.0 101911
03:00+10ese11775 0.0 101910
06:00+11nne11755 0.0 102019
09:00+19ese124751 0.0 1020477
12:00+22ene32365 0.0 10201780
15:00+23e33345 0.0 10192107
18:00+21e354474 0.0 1019850
21:00+14e2673100 0.0 1019109